Location: Unspecified
(0.0000°N, 0.0000°E)
Time: 20:04:47
(UTC+00:00)

STARLINK-1122 - Visible Passes

Search period start: 10 November 2025 00:00
Search period end: 20 November 2025 00:00
Orbit: 546 x 548 km, 53.1° (Epoch: 08 November)

Date Brightness Start Highest point End Pass type
(mag) Time Alt. Az. Time Alt. Az. Time Alt. Az.
10 Nov 4.8 18:18:42 10° NW 18:22:38 46° SW 18:26:36 10° SSE visible
11 Nov 7.1 04:38:57 10° SE 04:40:12 11° SE 04:41:28 10° ESE visible
11 Nov 5.9 18:12:43 10° WNW 18:16:19 29° SW 18:19:55 10° S visible
12 Nov 6.7 04:31:08 10° SSE 04:33:53 17° SE 04:36:39 10° E visible
12 Nov 6.6 18:07:01 10° WNW 18:09:58 19° SW 18:12:58 10° S visible
13 Nov 5.9 04:24:05 10° S 04:27:34 26° SE 04:31:02 10° ENE visible
14 Nov 4.9 04:17:20 10° SSW 04:21:14 41° SE 04:25:07 10° NE visible
15 Nov 3.9 04:10:51 10° SSW 04:14:52 67° SE 04:18:58 10° NE visible
16 Nov 3.8 04:09:18 56° NNE 04:09:18 56° NNE 04:12:37 10° NNE visible
